GSAT-11

Last updated on Thu Nov 21 2024 00:02:44 GMT+0000 (Coordinated Universal Time)

1 43824U 18100B 24325.20049228 -.00000076 00000+0 00000+0 0 9996 2 43824 0.0441 269.8031 0002211 227.2473 68.8108 1.00271003 21732
UTC large
Height (km)
Speed (km/s)
/
Latitude / Longitude
Inclination (degrees)
Orbital Period (minutes)
Azimuth
Elevation
Range (km)
Doppler Factor

Next 0 passes for location: London (51.5072 / 0.1276)

Sorry there are no passes over London.